Home > Time Zones > World Clock > Weather > Macau > Macau > Past weeks

Flag for Macau Weather past 2 weeks in Macau, Macau

Now
84 °F

Scattered clouds.


Feels Like: 94 °F
Forecast: 80 / 88 °F
Wind: 9 mph from Southeast

Location: Taipa

Current Time: Jul 31, 2015 at 10:08:38 AM

Latest Report: Jul 31, 2015 at 9:30 AM


Visibility: N/A

Pressure: 29.86 "Hg

Humidity: 79%

Dew point: 77 °F

Location of MacauLocation

Historic Weather in Macau — Graph

°F

Macau temperature yesterday

Maximum temperature yesterday: 86 °F (at 9:30 AM)
Minimum temperature yesterday: 81 °F (at 12:00 AM)
Average temperature yesterday: 83 °F

Past Weeks' High & Low Weather Summary

 TemperatureHumidityPressure
High91 °F (Jul 19, 1:00 PM)94% (Jul 18, 1:00 AM)29.92 "Hg (Jul 18, 1:00 AM)
Low77 °F (Jul 21, 5:30 AM)63% (Jul 19, 1:30 PM)29.45 "Hg (Jul 16, 5:00 PM)
Average84 °F83%29.70 "Hg
* Reported Jul 16 9:00 AM — Jul 31 9:00 AM, Macau, Weather by CustomWeather, © 2015

Note: Actual official high and low records may vary slightly from our data, if they occured in-between our weather recording intervals... More about our weather records

Advertising

Macau weather history for previous 24 hours

 ConditionsComfort  
Time TempWeatherWind HumidityBarometerVisibility
9:00 AM
Fri, Jul 31
82 °FScattered clouds.9 mph84%29.86 "HgN/A
8:30 AM82 °FScattered clouds.7 mph84%29.86 "HgN/A
8:00 AM84 °FScattered clouds.7 mph79%29.86 "HgN/A
7:30 AM82 °FScattered clouds.5 mph79%29.86 "HgN/A
7:00 AM81 °FPassing clouds.5 mph84%29.86 "HgN/A
6:30 AM81 °FPassing clouds.6 mph79%29.83 "HgN/A
6:00 AM81 °FPassing clouds.5 mph84%29.83 "HgN/A
5:30 AM81 °FPassing clouds.2 mph84%29.83 "HgN/A
5:00 AM79 °FPassing clouds.1 mph89%29.83 "HgN/A
4:30 AM81 °FPassing clouds.2 mph84%29.83 "HgN/A
4:00 AM79 °FPassing clouds.2 mph84%29.83 "HgN/A
3:30 AM77 °FSprinkles. Passing clouds.2 mph89%29.83 "HgN/A
3:04 AM81 °FSprinkles. Passing clouds.14 mph79%29.83 "Hg6 mi
2:30 AM82 °FPassing clouds.9 mph74%29.83 "HgN/A
2:00 AM82 °FPassing clouds.9 mph79%29.83 "HgN/A
1:30 AM82 °FPassing clouds.7 mph79%29.83 "HgN/A
1:00 AM82 °FPassing clouds.5 mph79%29.83 "HgN/A
12:30 AM82 °FPassing clouds.7 mph79%29.86 "HgN/A
12:00 AM82 °FPassing clouds.8 mph79%29.86 "HgN/A
11:30 PM
Thu, Jul 30
82 °FPassing clouds.9 mph79%29.86 "HgN/A
11:00 PM82 °FPassing clouds.9 mph79%29.86 "HgN/A
10:30 PM82 °FPassing clouds.9 mph79%29.86 "HgN/A
10:00 PM82 °FPassing clouds.9 mph74%29.86 "HgN/A
9:30 PM82 °FPassing clouds.9 mph74%29.83 "HgN/A
9:00 PM82 °FPassing clouds.10 mph79%29.83 "HgN/A
8:30 PM82 °FPassing clouds.9 mph74%29.83 "HgN/A
8:00 PM82 °FPassing clouds.7 mph79%29.83 "HgN/A
7:30 PM82 °FPassing clouds.10 mph79%29.83 "HgN/A
7:00 PM82 °FScattered clouds.12 mph74%29.83 "HgN/A
6:30 PM82 °FScattered clouds.13 mph79%29.80 "HgN/A
6:00 PM84 °FScattered clouds.12 mph74%29.80 "HgN/A
5:30 PM84 °FScattered clouds.10 mph74%29.83 "HgN/A
5:00 PM84 °FScattered clouds.12 mph79%29.83 "HgN/A
4:30 PM84 °FScattered clouds.10 mph74%29.83 "HgN/A
4:00 PM84 °FScattered clouds.10 mph79%29.83 "HgN/A
3:30 PM84 °FScattered clouds.12 mph79%29.83 "HgN/A
3:00 PM84 °FScattered clouds.12 mph79%29.83 "HgN/A
2:30 PM84 °FScattered clouds.10 mph79%29.86 "HgN/A
2:00 PM82 °FSprinkles. Scattered clouds.9 mph79%29.86 "Hg4 mi
1:30 PM84 °FScattered showers. Scattered clouds.14 mph79%29.86 "HgN/A
1:00 PM84 °FScattered clouds.13 mph79%29.86 "HgN/A
12:30 PM82 °FScattered clouds.15 mph79%29.86 "HgN/A
12:00 PM86 °FScattered clouds.13 mph75%29.86 "HgN/A
11:30 AM84 °FScattered clouds.15 mph74%29.86 "HgN/A
11:00 AM86 °FScattered clouds.14 mph75%29.86 "HgN/A
10:30 AM84 °FScattered clouds.10 mph79%29.86 "HgN/A
10:00 AM86 °FScattered clouds.10 mph75%29.86 "HgN/A
Weather by CustomWeather, © 2015

See weather overviewHow to use our weather pages